Regional Weather Roundup
Issued by NWS

Home | Current Version | Previous Version | Text Only | Print | Product List | Glossary On
Versions: 1 2 3 4 5 6 7 8 9 10 11 12 13 14 15 16 17 18 19 20 21 22 23 24 25 26 27 28 29 30 31 32 33 34 35 36 37 38 39 40 41 42 43 44 45 46 47 48 49 50
000
ASPQ40 PGUM 230312
RWRPQ
WEATHER ROUNDUP FOR THE MARIANAS AND MICRONESIA
NATIONAL WEATHER SERVICE TIYAN GU
100 PM CHST TUE MAY 23 2017

GUZ001>004-230400-
MARIANA ISLANDS-

CITY           SKY/WX    TMP DP  RH WIND       PRES   REMARKS
GUAM AIRPORT   SUNNY     88  75  66 E10       29.87F HX  97
ANDERSEN AFB   PTSUNNY   84  75  74 E12       29.89F HX  92
ROTA AIRPORT   MOSUNNY   86  73  66 E8        29.87F HX  93
TINIAN AP      MOSUNNY   86  73  66 SE8       29.85F HX  93
SAIPAN AP      MOSUNNY   86  73  66 E12G17    29.86  HX  93

$$

PMZ161-230400-
REPUBLIC OF PALAU-

CITY           SKY/WX    TMP DP  RH WIND       PRES   REMARKS
KOROR AP       PTSUNNY   86  77  74 E9        29.83F HX  97
KOROR WSO      CLOUDY    88  77  70 E5        29.85F HX 100

$$

PMZ171>174-230400-
FEDERATED STATES OF MICRONESIA-

CITY           SKY/WX    TMP DP  RH WIND       PRES   REMARKS
YAP AIRPORT    PTSUNNY   86  79  79 VRB6      29.84F HX  99
CHUUK AP       PTSUNNY   88  81  79 NE12      29.78F HX 105
POHNPEI AP     CLOUDY    84  77  79 E15       29.78F HX  94
POHNPEI WSO    CLOUDY    86  81  84 E13       29.81F HX 102
KOSRAE AP      NOT AVBL

$$

PMZ181-230400-
REPUBLIC OF THE MARSHALL ISLANDS-

CITY           SKY/WX    TMP DP  RH WIND       PRES   REMARKS
KWAJALEIN AP   SUNNY     88  75  66 E18G24    29.79F HX  97
MAJURO AP      NOT AVBL
MAJURO WSO     PTSUNNY   86  73  66 E17       29.76R HX  93

$$




USA.gov is the U.S. government's official web portal to all federal, state and local government web resources and services.